When you browse on this site, cookies collect data to enhance your experience and personalize the content and advertising you see.
Visit our Privacy Policy to learn more. By continuing to use the site, you agree to this use of cookies and data.
  • In Lithuania
  • List of Countries
  • For 7 days
  • Water Temperature
  • Satellite Maps
  • Weather Map
  • Weather Widgets
  • user-avatar
    Login

    Hourly Weather Korçe

    Today, 22 July, Monday

    Time Temperature Precipitation Wind Pressure Humidity
    00:00 +18°C° 0 mm 1 mps 670 mmHg 66%
    01:00 +18°C° 0 mm 1 mps 670 mmHg 67%
    02:00 +18°C° 0 mm 1 mps 670 mmHg 66%
    03:00 +18°C° 0 mm 1 mps 670 mmHg 66%
    04:00 +18°C° 0 mm 1 mps 669 mmHg 66%
    05:00 +20°C° 0 mm 1 mps 670 mmHg 63%
    06:00 +22°C° 0 mm 1 mps 671 mmHg 59%
    07:00 +24°C° 0 mm 1 mps 672 mmHg 55%
    08:00 +25°C° 0 mm 1 mps 672 mmHg 49%
    09:00 +27°C° 0 mm 2 mps 672 mmHg 43%
    10:00 +28°C° 0 mm 2 mps 672 mmHg 38%
    11:00 +28°C° 0 mm 2 mps 672 mmHg 36%
    12:00 +29°C° 0 mm 2 mps 672 mmHg 35%
    13:00 +29°C° 0 mm 2 mps 672 mmHg 34%
    14:00 +29°C° 0 mm 3 mps 672 mmHg 36%
    15:00 +28°C° 0 mm 3 mps 672 mmHg 37%
    16:00 +28°C° 0 mm 3 mps 671 mmHg 39%
    17:00 +26°C° 0 mm 2 mps 671 mmHg 46%
    18:00 +24°C° 0 mm 2 mps 670 mmHg 54%
    19:00 +21°C° 0 mm 2 mps 669 mmHg 61%
    20:00 +21°C° 0 mm 1 mps 669 mmHg 62%
    21:00 +20°C° 0 mm 1 mps 669 mmHg 64%
    22:00 +20°C° 0 mm 1 mps 669 mmHg 65%
    23:00 +19°C° 0 mm 1 mps 669 mmHg 65%

    Tomorrow, 23 July, Tuesday

    Time Temperature Precipitation Wind Pressure Humidity
    00:00 +19°C° 0 mm 1 mps 669 mmHg 65%
    01:00 +19°C° 0 mm 1 mps 669 mmHg 65%
    02:00 +19°C° 0 mm 1 mps 668 mmHg 66%
    03:00 +19°C° 0 mm 1 mps 668 mmHg 67%
    04:00 +18°C° 0 mm 1 mps 668 mmHg 68%
    05:00 +20°C° 0 mm 1 mps 668 mmHg 65%
    06:00 +21°C° 0 mm 1 mps 669 mmHg 63%
    07:00 +23°C° 0 mm 1 mps 669 mmHg 60%
    08:00 +25°C° 0 mm 1 mps 670 mmHg 55%
    09:00 +26°C° 0 mm 1 mps 670 mmHg 49%
    10:00 +28°C° 0 mm 1 mps 671 mmHg 43%
    11:00 +28°C° 0.1 mm 1 mps 670 mmHg 44%
    12:00 +28°C° 0.1 mm 1 mps 670 mmHg 45%
    13:00 +27°C° 0.1 mm 2 mps 669 mmHg 46%
    14:00 +26°C° 0.3 mm 1 mps 669 mmHg 53%
    15:00 +25°C° 0.3 mm 1 mps 668 mmHg 60%
    16:00 +24°C° 0.3 mm 1 mps 668 mmHg 66%
    17:00 +23°C° 0.1 mm 1 mps 667 mmHg 69%
    18:00 +22°C° 0.1 mm 1 mps 667 mmHg 72%
    19:00 +21°C° 0.1 mm 1 mps 667 mmHg 75%
    20:00 +21°C° 0 mm 1 mps 667 mmHg 76%
    21:00 +20°C° 0 mm 1 mps 667 mmHg 77%
    22:00 +19°C° 0 mm 1 mps 667 mmHg 78%
    23:00 +19°C° 0 mm 1 mps 667 mmHg 77%

    Day after tomorrow, 24 July, Wednesday

    Time Temperature Precipitation Wind Pressure Humidity
    00:00 +18°C° 0 mm 1 mps 667 mmHg 77%
    01:00 +18°C° 0 mm 1 mps 666 mmHg 77%
    02:00 +16°C° 0 mm 2 mps 666 mmHg 77%
    03:00 +16°C° 0 mm 2 mps 666 mmHg 77%
    04:00 +15°C° 0 mm 2 mps 665 mmHg 77%
    05:00 +17°C° 0 mm 2 mps 666 mmHg 73%
    06:00 +19°C° 0 mm 2 mps 666 mmHg 69%
    07:00 +20°C° 0 mm 2 mps 667 mmHg 65%
    08:00 +23°C° 0 mm 2 mps 668 mmHg 58%
    09:00 +24°C° 0 mm 2 mps 668 mmHg 52%
    10:00 +26°C° 0 mm 2 mps 669 mmHg 45%
    11:00 +27°C° 0 mm 2 mps 669 mmHg 43%
    12:00 +28°C° 0 mm 2 mps 669 mmHg 41%
    13:00 +28°C° 0 mm 2 mps 668 mmHg 38%
    14:00 +28°C° 0 mm 3 mps 668 mmHg 40%
    15:00 +28°C° 0 mm 3 mps 668 mmHg 42%
    16:00 +27°C° 0 mm 3 mps 668 mmHg 44%
    17:00 +25°C° 0 mm 2 mps 668 mmHg 51%
    18:00 +23°C° 0 mm 2 mps 667 mmHg 58%
    19:00 +20°C° 0 mm 2 mps 667 mmHg 65%
    20:00 +19°C° 0 mm 2 mps 667 mmHg 67%
    21:00 +19°C° 0 mm 2 mps 667 mmHg 69%
    22:00 +18°C° 0 mm 2 mps 667 mmHg 71%
    23:00 +17°C° 0 mm 2 mps 667 mmHg 71%

    25 July, Thursday

    Time Temperature Precipitation Wind Pressure Humidity
    00:00 +17°C° 0 mm 2 mps 667 mmHg 71%
    01:00 +17°C° 0 mm 2 mps 667 mmHg 72%
    02:00 +16°C° 0 mm 2 mps 667 mmHg 72%
    03:00 +16°C° 0 mm 2 mps 667 mmHg 73%
    04:00 +15°C° 0 mm 2 mps 667 mmHg 73%
    05:00 +17°C° 0 mm 2 mps 667 mmHg 69%
    06:00 +19°C° 0 mm 2 mps 668 mmHg 64%
    07:00 +20°C° 0 mm 2 mps 669 mmHg 59%
    08:00 +23°C° 0 mm 1 mps 669 mmHg 53%
    09:00 +25°C° 0 mm 1 mps 670 mmHg 48%
    10:00 +27°C° 0 mm 1 mps 670 mmHg 42%
    11:00 +27°C° 0 mm 1 mps 670 mmHg 40%
    12:00 +28°C° 0 mm 1 mps 670 mmHg 38%
    13:00 +29°C° 0 mm 2 mps 670 mmHg 37%
    14:00 +28°C° 0 mm 2 mps 670 mmHg 39%
    15:00 +28°C° 0 mm 3 mps 670 mmHg 41%
    16:00 +27°C° 0 mm 3 mps 669 mmHg 43%
    17:00 +25°C° 0 mm 3 mps 669 mmHg 51%
    18:00 +23°C° 0 mm 2 mps 668 mmHg 60%
    19:00 +20°C° 0 mm 2 mps 668 mmHg 68%
    20:00 +19°C° 0 mm 2 mps 668 mmHg 69%
    21:00 +20°C° 0 mm 1 mps 668 mmHg 69%
    22:00 +19°C° 0 mm 1 mps 668 mmHg 70%
    23:00 +19°C° 0 mm 1 mps 668 mmHg 70%

    26 July, Friday

    Time Temperature Precipitation Wind Pressure Humidity
    00:00 +18°C° 0 mm 1 mps 667 mmHg 70%
    01:00 +18°C° 0 mm 1 mps 667 mmHg 69%
    02:00 +18°C° 0 mm 1 mps 667 mmHg 70%
    03:00 +18°C° 0 mm 1 mps 667 mmHg 71%
    04:00 +16°C° 0 mm 1 mps 666 mmHg 71%
    05:00 +19°C° 0 mm 1 mps 667 mmHg 67%
    06:00 +21°C° 0 mm 1 mps 667 mmHg 62%
    07:00 +23°C° 0 mm 1 mps 668 mmHg 57%
    08:00 +25°C° 0 mm 1 mps 668 mmHg 52%
    09:00 +26°C° 0 mm 1 mps 669 mmHg 47%
    10:00 +28°C° 0 mm 1 mps 669 mmHg 42%
    11:00 +28°C° 0 mm 1 mps 669 mmHg 41%
    12:00 +28°C° 0 mm 2 mps 668 mmHg 40%
    13:00 +29°C° 0 mm 2 mps 668 mmHg 40%
    14:00 +28°C° 0 mm 3 mps 668 mmHg 43%
    15:00 +27°C° 0 mm 3 mps 667 mmHg 47%
    16:00 +27°C° 0 mm 3 mps 667 mmHg 51%
    17:00 +25°C° 0 mm 2 mps 666 mmHg 58%
    18:00 +23°C° 0 mm 2 mps 666 mmHg 65%
    19:00 +21°C° 0 mm 1 mps 665 mmHg 72%
    20:00 +21°C° 0 mm 1 mps 665 mmHg 75%
    21:00 +20°C° 0 mm 1 mps 665 mmHg 77%
    22:00 +19°C° 0 mm 1 mps 665 mmHg 79%
    23:00 +17°C° 0 mm 0 mps 665 mmHg 80%

    27 July, Saturday

    Time Temperature Precipitation Wind Pressure Humidity
    00:00 +16°C° 0 mm 0 mps 665 mmHg 80%
    01:00 +16°C° 0 mm 0 mps 665 mmHg 80%
    02:00 +16°C° 0 mm 0 mps 664 mmHg 80%
    03:00 +16°C° 0 mm 0 mps 664 mmHg 80%
    04:00 +15°C° 0 mm 0 mps 664 mmHg 80%
    05:00 +17°C° 0 mm 0 mps 664 mmHg 73%
    06:00 +19°C° 0 mm 0 mps 665 mmHg 67%
    07:00 +23°C° 0 mm 1 mps 666 mmHg 60%
    08:00 +25°C° 0 mm 1 mps 666 mmHg 54%
    09:00 +26°C° 0 mm 1 mps 666 mmHg 48%
    10:00 +27°C° 0 mm 2 mps 667 mmHg 43%
    11:00 +28°C° 0 mm 2 mps 667 mmHg 41%
    12:00 +29°C° 0 mm 3 mps 666 mmHg 39%
    13:00 +29°C° 0 mm 3 mps 666 mmHg 37%
    14:00 +29°C° 0 mm 4 mps 666 mmHg 39%
    15:00 +28°C° 0 mm 4 mps 666 mmHg 42%
    16:00 +28°C° 0 mm 4 mps 665 mmHg 44%
    17:00 +26°C° 0 mm 3 mps 665 mmHg 50%
    18:00 +24°C° 0 mm 3 mps 665 mmHg 57%
    19:00 +20°C° 0 mm 2 mps 664 mmHg 64%
    20:00 +21°C° 0 mm 1 mps 664 mmHg 65%
    21:00 +20°C° 0 mm 1 mps 664 mmHg 67%
    22:00 +19°C° 0 mm 1 mps 664 mmHg 68%
    23:00 +19°C° 0 mm 1 mps 664 mmHg 68%
    Show more